Date,TemperatureHighF,TemperatureAvgF,TemperatureLowF,DewpointHighF,DewpointAvgF,DewpointLowF,HumidityHigh,HumidityAvg,HumidityLow,PressureMaxIn,PressureMinIn,WindSpeedMaxMPH,WindSpeedAvgMPH,GustSpeedMaxMPH,PrecipitationSumIn
2013-1-1,63,51,45,-100,-100,-100,0,0,100,0.00,40.00,0,-999,0,0.00
2013-1-2,43,40,37,-100,-100,-100,0,0,100,0.00,40.00,0,-999,0,0.00
2013-1-3,52,42,33,-100,-100,-100,0,0,100,0.00,40.00,0,-999,0,0.00
2013-1-4,46,43,41,-100,-100,-100,0,0,100,0.00,40.00,0,-999,0,0.00
2013-1-5,43,42,40,-100,-100,-100,0,0,100,0.00,40.00,0,-999,0,0.00
2013-1-6,56,44,36,-100,-100,-100,0,0,100,0.00,40.00,0,-999,0,0.00
2013-1-7,56,43,30,-100,-100,-100,0,0,100,0.00,40.00,0,-999,0,0.00
2013-1-8,60,54,47,-100,-100,-100,0,0,100,0.00,40.00,0,-999,0,0.00
2013-1-9,63,61,58,-100,-100,-100,0,0,100,0.00,40.00,0,-999,0,0.00
2013-1-10,64,58,53,-100,-100,-100,0,0,100,0.00,40.00,0,-999,0,0.00
2013-1-11,70,59,40,-100,-100,-100,0,0,100,0.00,40.00,0,-999,0,0.00
2013-1-12,70,69,67,-100,-100,-100,0,0,100,0.00,40.00,0,-999,0,0.00
2013-1-13,68,47,39,-100,-100,-100,0,0,100,0.00,40.00,0,-999,0,0.00
2013-1-14,43,39,36,-100,-100,-100,0,0,100,0.00,40.00,0,-999,0,0.00
2013-1-15,38,34,32,-100,-100,-100,0,0,100,0.00,40.00,0,-999,0,0.00
2013-1-16,48,35,29,-100,-100,-100,0,0,100,0.00,40.00,0,-999,0,0.00
2013-1-17,58,37,25,-100,-100,-100,0,0,100,0.00,40.00,0,-999,0,0.00
2013-1-18,63,45,29,-100,-100,-100,0,0,100,0.00,40.00,0,-999,0,0.00
2013-1-19,64,43,29,-100,-100,-100,0,0,100,0.00,40.00,0,-999,0,0.00
2013-1-20,69,52,36,-100,-100,-100,0,0,100,0.00,40.00,0,-999,0,0.00
2013-1-21,67,48,36,-100,-100,-100,0,0,100,0.00,40.00,0,-999,0,0.00
2013-1-22,68,48,38,-100,-100,-100,0,0,100,0.00,40.00,0,-999,0,0.00
2013-1-23,71,52,39,-100,-100,-100,0,0,100,0.00,40.00,0,-999,0,0.00
2013-1-24,69,58,50,-100,-100,-100,0,0,100,0.00,40.00,0,-999,0,0.00
2013-1-25,73,60,52,-100,-100,-100,0,0,100,0.00,40.00,0,-999,0,0.00
2013-1-26,73,63,57,-100,-100,-100,0,0,100,0.00,40.00,0,-999,0,0.00
2013-1-27,74,64,54,-100,-100,-100,0,0,100,0.00,40.00,0,-999,0,0.00
2013-1-28,73,67,64,-100,-100,-100,0,0,100,0.00,40.00,0,-999,0,0.00
2013-1-29,71,68,65,-100,-100,-100,0,0,100,0.00,40.00,0,-999,0,0.00
2013-1-30,54,50,33,-100,-100,-100,0,0,100,0.00,40.00,0,-999,0,0.00
2013-1-31,62,46,29,-100,-100,-100,0,0,100,0.00,40.00,0,-999,0,0.00
2013-2-1,70,51,41,-100,-100,-100,0,0,100,0.00,40.00,0,-999,0,0.00
2013-2-2,72,53,40,-100,-100,-100,0,0,100,0.00,40.00,0,-999,0,0.00
2013-2-3,73,59,42,-100,-100,-100,0,0,100,0.00,40.00,0,-999,0,0.00
2013-2-4,65,54,43,-100,-100,-100,0,0,100,0.00,40.00,0,-999,0,0.00
2013-2-5,78,66,59,-100,-100,-100,0,0,100,0.00,40.00,0,-999,0,0.00
2013-2-6,62,60,58,-100,-100,-100,0,0,100,0.00,40.00,0,-999,0,0.00
2013-2-7,65,60,54,-100,-100,-100,0,0,100,0.00,40.00,0,-999,0,0.00
2013-2-8,62,57,49,-100,-100,-100,0,0,100,0.00,40.00,0,-999,0,0.00
2013-2-9,63,54,43,-100,-100,-100,0,0,100,0.00,40.00,0,-999,0,0.00
2013-2-10,67,62,58,-100,-100,-100,0,0,100,0.00,40.00,0,-999,0,0.00
2013-2-11,61,52,49,-100,-100,-100,0,0,100,0.00,40.00,0,-999,0,0.00
2013-2-12,58,54,51,-100,-100,-100,0,0,100,0.00,40.00,0,-999,0,0.00
2013-2-13,57,48,39,-100,-100,-100,0,0,100,0.00,40.00,0,-999,0,0.00
2013-2-14,66,48,31,-100,-100,-100,0,0,100,0.00,40.00,0,-999,0,0.00
2013-2-15,65,46,33,-100,-100,-100,0,0,100,0.00,40.00,0,-999,0,0.00
2013-2-16,56,45,34,-100,-100,-100,0,0,100,0.00,40.00,0,-999,0,0.00
2013-2-17,67,52,30,-100,-100,-100,0,0,100,0.00,40.00,0,-999,0,0.00
2013-2-18,68,63,58,-100,-100,-100,0,0,100,0.00,40.00,0,-999,0,0.00
2013-2-19,69,57,43,-100,-100,-100,0,0,100,0.00,40.00,0,-999,0,0.00
2013-2-20,55,51,46,-100,-100,-100,0,0,100,0.00,40.00,0,-999,0,0.00
2013-2-21,73,62,55,-100,-100,-100,0,0,100,0.00,40.00,0,-999,0,0.00
2013-2-22,62,54,50,-100,-100,-100,0,0,100,0.00,40.00,0,-999,0,0.00
2013-2-23,68,55,46,-100,-100,-100,0,0,100,0.00,40.00,0,-999,0,0.00
2013-2-24,68,57,40,-100,-100,-100,0,0,100,0.00,40.00,0,-999,0,0.00
2013-2-25,72,60,45,-100,-100,-100,0,0,100,0.00,40.00,0,-999,0,0.00
2013-2-26,62,50,40,-100,-100,-100,0,0,100,0.00,40.00,0,-999,0,0.00
2013-2-27,68,50,36,-100,-100,-100,0,0,100,0.00,40.00,0,-999,0,0.00
2013-2-28,52,40,35,-100,-100,-100,0,0,100,0.00,40.00,0,-999,0,0.00
2013-3-1,61,46,28,-100,-100,-100,0,0,100,0.00,40.00,0,-999,0,0.00
2013-3-2,51,39,34,-100,-100,-100,0,0,100,0.00,40.00,0,-999,0,0.00
2013-3-3,64,44,25,-100,-100,-100,0,0,100,0.00,40.00,0,-999,0,0.00
2013-3-4,73,59,46,-100,-100,-100,0,0,100,0.00,40.00,0,-999,0,0.00
2013-3-5,67,61,49,-100,-100,-100,0,0,100,0.00,40.00,0,-999,0,0.00
2013-3-6,67,48,30,-100,-100,-100,0,0,100,0.00,40.00,0,-999,0,0.00
2013-3-7,69,53,35,-100,-100,-100,0,0,100,0.00,40.00,0,-999,0,0.00
2013-3-8,73,59,40,-100,-100,-100,0,0,100,0.00,40.00,0,-999,0,0.00
2013-3-9,71,63,56,-100,-100,-100,0,0,100,0.00,40.00,0,-999,0,0.00
2013-3-10,64,56,51,-100,-100,-100,0,0,100,0.00,40.00,0,-999,0,0.00
2013-3-11,57,46,37,-100,-100,-100,0,0,100,0.00,40.00,0,-999,0,0.00
2013-3-12,71,50,29,-100,-100,-100,0,0,100,0.00,40.00,0,-999,0,0.00
2013-3-13,74,51,36,-100,-100,-100,0,0,100,0.00,40.00,0,-999,0,0.00
2013-3-14,71,49,36,-100,-100,-100,0,0,100,0.00,40.00,0,-999,0,0.00
2013-3-15,75,59,40,-100,-100,-100,0,0,100,0.00,40.00,0,-999,0,0.00
2013-3-16,76,63,52,-100,-100,-100,0,0,100,0.00,40.00,0,-999,0,0.00
2013-3-17,75,65,58,-100,-100,-100,0,0,100,0.00,40.00,0,-999,0,0.00
2013-3-18,83,69,64,-100,-100,-100,0,0,100,0.00,40.00,0,-999,0,0.00
2013-3-19,79,67,55,-100,-100,-100,0,0,100,0.00,40.00,0,-999,0,0.00
2013-3-20,72,60,46,-100,-100,-100,0,0,100,0.00,40.00,0,-999,0,0.00
2013-3-21,70,58,46,-100,-100,-100,0,0,100,0.00,40.00,0,-999,0,0.00
2013-3-22,79,69,62,-100,-100,-100,0,0,100,0.00,40.00,0,-999,0,0.00
2013-3-23,72,68,65,-100,-100,-100,0,0,100,0.00,40.00,0,-999,0,0.00
2013-3-24,65,54,42,-100,-100,-100,0,0,100,0.00,40.00,0,-999,0,0.00
2013-3-25,60,45,32,-100,-100,-100,0,0,100,0.00,40.00,0,-999,0,0.00
2013-3-26,58,44,28,-100,-100,-100,0,0,100,0.00,40.00,0,-999,0,0.00
2013-3-27,67,48,29,-100,-100,-100,0,0,100,0.00,40.00,0,-999,0,0.00
2013-3-28,73,57,50,-100,-100,-100,0,0,100,0.00,40.00,0,-999,0,0.00
2013-3-29,75,61,47,-100,-100,-100,0,0,100,0.00,40.00,0,-999,0,0.00
2013-3-30,73,65,59,-100,-100,-100,0,0,100,0.00,40.00,0,-999,0,0.00
2013-3-31,77,65,57,-100,-100,-100,0,0,100,0.00,40.00,0,-999,0,0.00
2013-4-1,79,63,56,-100,-100,-100,0,0,100,0.00,40.00,0,-999,0,0.00
2013-4-2,73,63,55,-100,-100,-100,0,0,100,0.00,40.00,0,-999,0,0.00
2013-4-3,65,54,48,-100,-100,-100,0,0,100,0.00,40.00,0,-999,0,0.00
2013-4-4,51,47,44,-100,-100,-100,0,0,100,0.00,40.00,0,-999,0,0.00
2013-4-5,73,59,43,-100,-100,-100,0,0,100,0.00,40.00,0,-999,0,0.00
2013-4-6,72,56,43,-100,-100,-100,0,0,100,0.00,40.00,0,-999,0,0.00
2013-4-7,77,66,57,-100,-100,-100,0,0,100,0.00,40.00,0,-999,0,0.00
2013-4-8,76,69,63,-100,-100,-100,0,0,100,0.00,40.00,0,-999,0,0.00
2013-4-9,78,70,65,-100,-100,-100,0,0,100,0.00,40.00,0,-999,0,0.00
2013-4-10,76,69,51,-100,-100,-100,0,0,100,0.00,40.00,0,-999,0,0.00
2013-4-11,66,50,40,-100,-100,-100,0,0,100,0.00,40.00,0,-999,0,0.00
2013-4-12,82,58,42,-100,-100,-100,0,0,100,0.00,40.00,0,-999,0,0.00
2013-4-13,80,59,44,-100,-100,-100,0,0,100,0.00,40.00,0,-999,0,0.00
2013-4-14,78,66,56,-100,-100,-100,0,0,100,0.00,40.00,0,-999,0,0.00
2013-4-15,83,69,58,-100,-100,-100,0,0,100,0.00,40.00,0,-999,0,0.00
2013-4-16,79,73,69,-100,-100,-100,0,0,100,0.00,40.00,0,-999,0,0.00
2013-4-17,75,72,70,-100,-100,-100,0,0,100,0.00,40.00,0,-999,0,0.00
2013-4-18,73,65,47,-100,-100,-100,0,0,100,0.00,40.00,0,-999,0,0.00
2013-4-19,62,50,40,-100,-100,-100,0,0,100,0.00,40.00,0,-999,0,0.00
2013-4-20,73,56,36,-100,-100,-100,0,0,100,0.00,40.00,0,-999,0,0.00
2013-4-21,76,61,40,-100,-100,-100,0,0,100,0.00,40.00,0,-999,0,0.00
2013-4-22,83,64,48,-100,-100,-100,0,0,100,0.00,40.00,0,-999,0,0.00
2013-4-23,76,68,52,-100,-100,-100,0,0,100,0.00,40.00,0,-999,0,0.00
2013-4-24,70,60,45,-100,-100,-100,0,0,100,0.00,40.00,0,-999,0,0.00
2013-4-25,73,61,49,-100,-100,-100,0,0,100,0.00,40.00,0,-999,0,0.00
2013-4-26,77,70,62,-100,-100,-100,0,0,100,0.00,40.00,0,-999,0,0.00
2013-4-27,76,69,66,-100,-100,-100,0,0,100,0.00,40.00,0,-999,0,0.00
2013-4-28,81,72,61,-100,-100,-100,0,0,100,0.00,40.00,0,-999,0,0.00
2013-4-29,84,70,56,-100,-100,-100,0,0,100,0.00,40.00,0,-999,0,0.00
2013-4-30,86,74,65,-100,-100,-100,0,0,100,0.00,40.00,0,-999,0,0.00
2013-5-1,81,70,64,-100,-100,-100,0,0,100,0.00,40.00,0,-999,0,0.00
2013-5-2,73,64,54,-100,-100,-100,0,0,100,0.00,40.00,0,-999,0,0.00
2013-5-3,64,52,43,-100,-100,-100,0,0,100,0.00,40.00,0,-999,0,0.00
2013-5-4,77,58,35,-100,-100,-100,0,0,100,0.00,40.00,0,-999,0,0.00
2013-5-5,69,56,45,-100,-100,-100,0,0,100,0.00,40.00,0,-999,0,0.00
2013-5-6,76,56,40,-100,-100,-100,0,0,100,0.00,40.00,0,-999,0,0.00
2013-5-7,86,70,54,-100,-100,-100,0,0,100,0.00,40.00,0,-999,0,0.00
2013-5-8,82,69,55,-100,-100,-100,0,0,100,0.00,40.00,0,-999,0,0.00
2013-5-9,75,70,62,-100,-100,-100,0,0,100,0.00,40.00,0,-999,0,0.00
2013-5-10,76,67,62,-100,-100,-100,0,0,100,0.00,40.00,0,-999,0,0.00
2013-5-11,84,73,63,-100,-100,-100,0,0,100,0.00,40.00,0,-999,0,0.00
2013-5-12,80,68,58,-100,-100,-100,0,0,100,0.00,40.00,0,-999,0,0.00
2013-5-13,82,65,50,-100,-100,-100,0,0,100,0.00,40.00,0,-999,0,0.00
2013-5-14,84,67,52,-100,-100,-100,0,0,100,0.00,40.00,0,-999,0,0.00
2013-5-15,75,66,58,-100,-100,-100,0,0,100,0.00,40.00,0,-999,0,0.00
2013-5-16,82,70,65,-100,-100,-100,0,0,100,0.00,40.00,0,-999,0,0.00
2013-5-17,81,75,69,-100,-100,-100,0,0,100,0.00,40.00,0,-999,0,0.00
2013-5-18,87,77,71,-100,-100,-100,0,0,100,0.00,40.00,0,-999,0,0.00
2013-5-19,85,77,70,-100,-100,-100,0,0,100,0.00,40.00,0,-999,0,0.00
2013-5-20,86,78,73,-100,-100,-100,0,0,100,0.00,40.00,0,-999,0,0.00
2013-5-21,85,77,73,-100,-100,-100,0,0,100,0.00,40.00,0,-999,0,0.00
2013-5-22,84,75,65,-100,-100,-100,0,0,100,0.00,40.00,0,-999,0,0.00
2013-5-23,87,78,67,-100,-100,-100,0,0,100,0.00,40.00,0,-999,0,0.00
2013-5-24,91,82,69,-100,-100,-100,0,0,100,0.00,40.00,0,-999,0,0.00
2013-5-25,86,75,67,-100,-100,-100,0,0,100,0.00,40.00,0,-999,0,0.00
2013-5-26,89,80,70,-100,-100,-100,0,0,100,0.00,40.00,0,-999,0,0.00
2013-5-27,87,74,65,-100,-100,-100,0,0,100,0.00,40.00,0,-999,0,0.00
2013-5-28,86,76,69,-100,-100,-100,0,0,100,0.00,40.00,0,-999,0,0.00
2013-5-29,83,76,70,-100,-100,-100,0,0,100,0.00,40.00,0,-999,0,0.00
2013-5-30,87,78,72,-100,-100,-100,0,0,100,0.00,40.00,0,-999,0,0.00
2013-5-31,86,80,75,-100,-100,-100,0,0,100,0.00,40.00,0,-999,0,0.00
2013-6-1,88,80,73,-100,-100,-100,0,0,100,0.00,40.00,0,-999,0,0.00
2013-6-2,81,74,66,-100,-100,-100,0,0,100,0.00,40.00,0,-999,0,0.00
2013-6-3,88,72,63,-100,-100,-100,0,0,100,0.00,40.00,0,-999,0,0.00
2013-6-4,91,80,66,-100,-100,-100,0,0,100,0.00,40.00,0,-999,0,0.00
2013-6-5,96,81,66,-100,-100,-100,0,0,100,0.00,40.00,0,-999,0,0.00
2013-6-6,92,77,65,-100,-100,-100,0,0,100,0.00,40.00,0,-999,0,0.00
2013-6-7,83,70,63,-100,-100,-100,0,0,100,0.00,40.00,0,-999,0,0.00
2013-6-8,84,73,64,-100,-100,-100,0,0,100,0.00,40.00,0,-999,0,0.00
2013-6-9,85,72,66,-100,-100,-100,0,0,100,0.00,40.00,0,-999,0,0.00
2013-6-10,90,75,65,-100,-100,-100,0,0,100,0.00,40.00,0,-999,0,0.00
2013-6-11,93,80,69,-100,-100,-100,0,0,100,0.00,40.00,0,-999,0,0.00
2013-6-12,91,81,71,-100,-100,-100,0,0,100,0.00,40.00,0,-999,0,0.00
2013-6-13,97,80,71,-100,-100,-100,0,0,100,0.00,40.00,0,-999,0,0.00
2013-6-14,97,83,72,-100,-100,-100,0,0,100,0.00,40.00,0,-999,0,0.00
2013-6-15,92,76,69,-100,-100,-100,0,0,100,0.00,40.00,0,-999,0,0.00
2013-6-16,92,80,71,-100,-100,-100,0,0,100,0.00,40.00,0,-999,0,0.00
2013-6-17,93,81,70,-100,-100,-100,0,0,100,0.00,40.00,0,-999,0,0.00
2013-6-18,86,76,70,-100,-100,-100,0,0,100,0.00,40.00,0,-999,0,0.00
2013-6-19,89,75,69,-100,-100,-100,0,0,100,0.00,40.00,0,-999,0,0.00
2013-6-20,89,76,69,-100,-100,-100,0,0,100,0.00,40.00,0,-999,0,0.00
2013-6-22,92,83,73,-100,-100,-100,0,0,100,0.00,40.00,0,-999,0,0.00
2013-6-23,91,83,69,-100,-100,-100,0,0,100,0.00,40.00,0,-999,0,0.00
2013-6-24,91,83,71,-100,-100,-100,0,0,100,0.00,40.00,0,-999,0,0.00
2013-6-25,93,85,73,-100,-100,-100,0,0,100,0.00,40.00,0,-999,0,0.00
2013-6-26,95,84,73,-100,-100,-100,0,0,100,0.00,40.00,0,-999,0,0.00
2013-6-27,94,84,70,-100,-100,-100,0,0,100,0.00,40.00,0,-999,0,0.00
2013-6-28,97,82,69,-100,-100,-100,0,0,100,0.00,40.00,0,-999,0,0.00
2013-6-29,100,87,72,-100,-100,-100,0,0,100,0.00,40.00,0,-999,0,0.00
2013-6-30,92,84,69,-100,-100,-100,0,0,100,0.00,40.00,0,-999,0,0.00
2013-7-1,87,78,62,-100,-100,-100,0,0,100,0.00,40.00,0,-999,0,0.00
2013-7-2,93,80,64,-100,-100,-100,0,0,100,0.00,40.00,0,-999,0,0.00
2013-7-3,91,78,65,-100,-100,-100,0,0,100,0.00,40.00,0,-999,0,0.00
2013-7-4,92,84,68,-100,-100,-100,0,0,100,0.00,40.00,0,-999,0,0.00
2013-7-5,94,80,65,-100,-100,-100,0,0,100,0.00,40.00,0,-999,0,0.00
2013-7-6,94,78,71,-100,-100,-100,0,0,100,0.00,40.00,0,-999,0,0.00
2013-7-7,84,78,72,-100,-100,-100,0,0,100,0.00,40.00,0,-999,0,0.00
2013-7-8,84,76,71,-100,-100,-100,0,0,100,0.00,40.00,0,-999,0,0.00
2013-7-9,92,79,70,-100,-100,-100,0,0,100,0.00,40.00,0,-999,0,0.00
2013-7-10,95,82,70,-100,-100,-100,0,0,100,0.00,40.00,0,-999,0,0.00
2013-7-11,94,82,72,-100,-100,-100,0,0,100,0.00,40.00,0,-999,0,0.00
2013-7-12,98,83,72,-100,-100,-100,0,0,100,0.00,40.00,0,-999,0,0.00
2013-7-13,98,82,71,-100,-100,-100,0,0,100,0.00,40.00,0,-999,0,0.00
2013-7-14,88,77,69,-100,-100,-100,0,0,100,0.00,40.00,0,-999,0,0.00
2013-7-15,87,74,69,-100,-100,-100,0,0,100,0.00,40.00,0,-999,0,0.00
2013-7-16,86,75,70,-100,-100,-100,0,0,100,0.00,40.00,0,-999,0,0.00
2013-7-17,88,76,71,-100,-100,-100,0,0,100,0.00,40.00,0,-999,0,0.00
2013-7-18,94,86,73,-100,-100,-100,0,0,100,0.00,40.00,0,-999,0,0.00
2013-7-19,85,72,68,-100,-100,-100,0,0,100,0.00,40.00,0,-999,0,0.00
2013-7-20,91,75,67,-100,-100,-100,0,0,100,0.00,40.00,0,-999,0,0.00
2013-7-21,84,77,70,-100,-100,-100,0,0,100,0.00,40.00,0,-999,0,0.00
2013-7-22,91,84,73,-100,-100,-100,0,0,100,0.00,40.00,0,-999,0,0.00
2013-7-23,91,81,74,-100,-100,-100,0,0,100,0.00,40.00,0,-999,0,0.00
2013-7-24,91,80,70,-100,-100,-100,0,0,100,0.00,40.00,0,-999,0,0.00
2013-7-25,97,84,75,-100,-100,-100,0,0,100,0.00,40.00,0,-999,0,0.00
2013-7-26,92,81,73,-100,-100,-100,0,0,100,0.00,40.00,0,-999,0,0.00
2013-7-27,91,80,75,-100,-100,-100,0,0,100,0.00,40.00,0,-999,0,0.00
2013-7-28,87,80,72,-100,-100,-100,0,0,100,0.00,40.00,0,-999,0,0.00
2013-7-29,91,80,72,-100,-100,-100,0,0,100,0.00,40.00,0,-999,0,0.00
2013-7-30,92,80,69,-100,-100,-100,0,0,100,0.00,40.00,0,-999,0,0.00
2013-7-31,95,78,68,-100,-100,-100,0,0,100,0.00,40.00,0,-999,0,0.00
2013-8-1,96,82,70,-100,-100,-100,0,0,100,0.00,40.00,0,-999,0,0.00
2013-8-2,97,84,72,-100,-100,-100,0,0,100,0.00,40.00,0,-999,0,0.00
2013-8-3,94,82,70,-100,-100,-100,0,0,100,0.00,40.00,0,-999,0,0.00
2013-8-4,93,85,72,-100,-100,-100,0,0,100,0.00,40.00,0,-999,0,0.00
2013-8-5,94,82,73,-100,-100,-100,0,0,100,0.00,40.00,0,-999,0,0.00
2013-8-6,93,84,73,-100,-100,-100,0,0,100,0.00,40.00,0,-999,0,0.00
2013-8-7,95,85,74,-100,-100,-100,0,0,100,0.00,40.00,0,-999,0,0.00
2013-8-8,95,82,69,-100,-100,-100,0,0,100,0.00,40.00,0,-999,0,0.00
2013-8-9,99,82,69,-100,-100,-100,0,0,100,0.00,40.00,0,-999,0,0.00
2013-8-10,89,79,74,-100,-100,-100,0,0,100,0.00,40.00,0,-999,0,0.00
2013-8-11,85,75,71,-100,-100,-100,0,0,100,0.00,40.00,0,-999,0,0.00
2013-8-12,93,82,71,-100,-100,-100,0,0,100,0.00,40.00,0,-999,0,0.00
2013-8-13,95,86,73,-100,-100,-100,0,0,100,0.00,40.00,0,-999,0,0.00
2013-8-14,91,80,72,-100,-100,-100,0,0,100,0.00,40.00,0,-999,0,0.00
2013-8-15,86,75,70,-100,-100,-100,0,0,100,0.00,40.00,0,-999,0,0.00
2013-8-16,94,80,70,-100,-100,-100,0,0,100,0.00,40.00,0,-999,0,0.00
2013-8-17,91,79,65,-100,-100,-100,0,0,100,0.00,40.00,0,-999,0,0.00
2013-8-18,94,83,65,-100,-100,-100,0,0,100,0.00,40.00,0,-999,0,0.00
2013-8-19,95,76,66,-100,-100,-100,0,0,100,0.00,40.00,0,-999,0,0.00
2013-8-20,84,75,69,-100,-100,-100,0,0,100,0.00,40.00,0,-999,0,0.00
2013-8-21,94,80,68,-100,-100,-100,0,0,100,0.00,40.00,0,-999,0,0.00
2013-8-22,89,79,72,-100,-100,-100,0,0,100,0.00,40.00,0,-999,0,0.00
2013-8-23,98,85,70,-100,-100,-100,0,0,100,0.00,40.00,0,-999,0,0.00
2013-8-24,96,82,72,-100,-100,-100,0,0,100,0.00,40.00,0,-999,0,0.00
2013-8-25,87,79,73,-100,-100,-100,0,0,100,0.00,40.00,0,-999,0,0.00
2013-8-26,80,74,70,-100,-100,-100,0,0,100,0.00,40.00,0,-999,0,0.00
2013-8-27,91,79,69,-100,-100,-100,0,0,100,0.00,40.00,0,-999,0,0.00
2013-8-28,97,89,75,-100,-100,-100,0,0,100,0.00,40.00,0,-999,0,0.00
2013-8-29,97,83,71,-100,-100,-100,0,0,100,0.00,40.00,0,-999,0,0.00
2013-8-30,93,82,72,-100,-100,-100,0,0,100,0.00,40.00,0,-999,0,0.00
2013-8-31,94,81,69,-100,-100,-100,0,0,100,0.00,40.00,0,-999,0,0.00
2013-9-1,96,80,69,-100,-100,-100,0,0,100,0.00,40.00,0,-999,0,0.00
2013-9-2,93,79,70,-100,-100,-100,0,0,100,0.00,40.00,0,-999,0,0.00
2013-9-3,95,83,73,-100,-100,-100,0,0,100,0.00,40.00,0,-999,0,0.00
2013-9-4,94,82,70,-100,-100,-100,0,0,100,0.00,40.00,0,-999,0,0.00
2013-9-5,88,74,69,-100,-100,-100,0,0,100,0.00,40.00,0,-999,0,0.00
2013-9-6,93,80,69,-100,-100,-100,0,0,100,0.00,40.00,0,-999,0,0.00
2013-9-7,92,76,71,-100,-100,-100,0,0,100,0.00,40.00,0,-999,0,0.00
2013-9-8,91,80,67,-100,-100,-100,0,0,100,0.00,40.00,0,-999,0,0.00
2013-9-9,94,81,67,-100,-100,-100,0,0,100,0.00,40.00,0,-999,0,0.00
2013-9-10,91,82,69,-100,-100,-100,0,0,100,0.00,40.00,0,-999,0,0.00
2013-9-11,96,82,68,-100,-100,-100,0,0,100,0.00,40.00,0,-999,0,0.00
2013-9-12,95,82,69,-100,-100,-100,0,0,100,0.00,40.00,0,-999,0,0.00
2013-9-13,100,82,66,-100,-100,-100,0,0,100,0.00,40.00,0,-999,0,0.00
2013-9-14,93,80,72,-100,-100,-100,0,0,100,0.00,40.00,0,-999,0,0.00
2013-9-15,91,74,70,-100,-100,-100,0,0,100,0.00,40.00,0,-999,0,0.00
2013-9-16,93,81,67,-100,-100,-100,0,0,100,0.00,40.00,0,-999,0,0.00
2013-9-17,96,82,71,-100,-100,-100,0,0,100,0.00,40.00,0,-999,0,0.00
2013-9-18,73,71,70,-100,-100,-100,0,0,100,0.00,40.00,0,-999,0,0.00
2013-9-19,91,79,72,-100,-100,-100,0,0,100,0.00,40.00,0,-999,0,0.00
2013-9-20,76,74,72,-100,-100,-100,0,0,100,0.00,40.00,0,-999,0,0.00
2013-9-21,73,70,69,-100,-100,-100,0,0,100,0.00,40.00,0,-999,0,0.00
2013-9-22,83,73,65,-100,-100,-100,0,0,100,0.00,40.00,0,-999,0,0.00
2013-9-23,91,73,63,-100,-100,-100,0,0,100,0.00,40.00,0,-999,0,0.00
2013-9-24,91,82,69,-100,-100,-100,0,0,100,0.00,40.00,0,-999,0,0.00
2013-9-25,89,72,62,-100,-100,-100,0,0,100,0.00,40.00,0,-999,0,0.00
2013-9-26,94,78,61,-100,-100,-100,0,0,100,0.00,40.00,0,-999,0,0.00
2013-9-27,91,77,64,-100,-100,-100,0,0,100,0.00,40.00,0,-999,0,0.00
2013-9-28,89,80,67,-100,-100,-100,0,0,100,0.00,40.00,0,-999,0,0.00
2013-9-29,80,73,70,-100,-100,-100,0,0,100,0.00,40.00,0,-999,0,0.00
2013-9-30,80,74,70,-100,-100,-100,0,0,100,0.00,40.00,0,-999,0,0.00
2013-10-1,80,74,69,-100,-100,-100,0,0,100,0.00,40.00,0,-999,0,0.00
2013-10-2,90,76,69,-100,-100,-100,0,0,100,0.00,40.00,0,-999,0,0.00
2013-10-3,89,77,68,-100,-100,-100,0,0,100,0.00,40.00,0,-999,0,0.00
2013-10-4,89,77,67,-100,-100,-100,0,0,100,0.00,40.00,0,-999,0,0.00
2013-10-5,94,79,72,-100,-100,-100,0,0,100,0.00,40.00,0,-999,0,0.00
2013-10-6,74,64,55,-100,-100,-100,0,0,100,0.00,40.00,0,-999,0,0.00
2013-10-7,77,58,47,-100,-100,-100,0,0,100,0.00,40.00,0,-999,0,0.00
2013-10-8,82,58,49,-100,-100,-100,0,0,100,0.00,40.00,0,-999,0,0.00
2013-10-9,82,60,50,-100,-100,-100,0,0,100,0.00,40.00,0,-999,0,0.00
2013-10-10,85,70,55,-100,-100,-100,0,0,100,0.00,40.00,0,-999,0,0.00
2013-10-11,87,75,58,-100,-100,-100,0,0,100,0.00,40.00,0,-999,0,0.00
2013-10-12,86,74,69,-100,-100,-100,0,0,100,0.00,40.00,0,-999,0,0.00
2013-10-13,76,70,66,-100,-100,-100,0,0,100,0.00,40.00,0,-999,0,0.00
2013-10-14,83,74,68,-100,-100,-100,0,0,100,0.00,40.00,0,-999,0,0.00
2013-10-15,82,74,66,-100,-100,-100,0,0,100,0.00,40.00,0,-999,0,0.00
2013-10-16,77,71,66,-100,-100,-100,0,0,100,0.00,40.00,0,-999,0,0.00
2013-10-17,73,65,53,-100,-100,-100,0,0,100,0.00,40.00,0,-999,0,0.00
2013-10-18,69,61,51,-100,-100,-100,0,0,100,0.00,40.00,0,-999,0,0.00
2013-10-19,68,61,50,-100,-100,-100,0,0,100,0.00,40.00,0,-999,0,0.00
2013-10-20,73,60,42,-100,-100,-100,0,0,100,0.00,40.00,0,-999,0,0.00
2013-10-21,73,62,53,-100,-100,-100,0,0,100,0.00,40.00,0,-999,0,0.00
2013-10-22,70,63,50,-100,-100,-100,0,0,100,0.00,40.00,0,-999,0,0.00
2013-10-23,80,58,46,-100,-100,-100,0,0,100,0.00,40.00,0,-999,0,0.00
2013-10-24,83,57,48,-100,-100,-100,0,0,100,0.00,40.00,0,-999,0,0.00
2013-10-25,74,60,52,-100,-100,-100,0,0,100,0.00,40.00,0,-999,0,0.00
2013-10-26,79,60,46,-100,-100,-100,0,0,100,0.00,40.00,0,-999,0,0.00
2013-10-27,73,64,58,-100,-100,-100,0,0,100,0.00,40.00,0,-999,0,0.00
2013-10-28,80,66,55,-100,-100,-100,0,0,100,0.00,40.00,0,-999,0,0.00
2013-10-29,81,72,63,-100,-100,-100,0,0,100,0.00,40.00,0,-999,0,0.00
2013-10-30,73,71,67,-100,-100,-100,0,0,100,0.00,40.00,0,-999,0,0.00
2013-10-31,74,68,61,-100,-100,-100,0,0,100,0.00,40.00,0,-999,0,0.00
2013-11-1,76,64,55,-100,-100,-100,0,0,100,0.00,40.00,0,-999,0,0.00
2013-11-2,69,60,47,-100,-100,-100,0,0,100,0.00,40.00,0,-999,0,0.00
2013-11-3,67,54,43,-100,-100,-100,0,0,100,0.00,40.00,0,-999,0,0.00
2013-11-4,74,61,47,-100,-100,-100,0,0,100,0.00,40.00,0,-999,0,0.00
2013-11-5,78,67,63,-100,-100,-100,0,0,100,0.00,40.00,0,-999,0,0.00
2013-11-6,81,70,58,-100,-100,-100,0,0,100,0.00,40.00,0,-999,0,0.00
2013-11-7,62,54,47,-100,-100,-100,0,0,100,0.00,40.00,0,-999,0,0.00
2013-11-8,68,52,42,-100,-100,-100,0,0,100,0.00,40.00,0,-999,0,0.00
2013-11-9,69,58,47,-100,-100,-100,0,0,100,0.00,40.00,0,-999,0,0.00
2013-11-10,75,62,47,-100,-100,-100,0,0,100,0.00,40.00,0,-999,0,0.00
2013-11-11,77,60,47,-100,-100,-100,0,0,100,0.00,40.00,0,-999,0,0.00
2013-11-12,70,54,43,-100,-100,-100,0,0,100,0.00,40.00,0,-999,0,0.00
2013-11-13,53,38,29,-100,-100,-100,0,0,100,0.00,40.00,0,-999,0,0.00
2013-11-14,61,43,29,-100,-100,-100,0,0,100,0.00,40.00,0,-999,0,0.00
2013-11-15,76,60,45,-100,-100,-100,0,0,100,0.00,40.00,0,-999,0,0.00
2013-11-16,76,66,54,-100,-100,-100,0,0,100,0.00,40.00,0,-999,0,0.00
2013-11-17,81,75,70,-100,-100,-100,0,0,100,0.00,40.00,0,-999,0,0.00
2013-11-18,71,68,57,-100,-100,-100,0,0,100,0.00,40.00,0,-999,0,0.00
2013-11-19,71,60,45,-100,-100,-100,0,0,100,0.00,40.00,0,-999,0,0.00
2013-11-20,70,60,40,-100,-100,-100,0,0,100,0.00,40.00,0,-999,0,0.00
2013-11-21,77,68,62,-100,-100,-100,0,0,100,0.00,40.00,0,-999,0,0.00
2013-11-22,69,57,45,-100,-100,-100,0,0,100,0.00,40.00,0,-999,0,0.00
2013-11-23,47,44,40,-100,-100,-100,0,0,100,0.00,40.00,0,-999,0,0.00
2013-11-24,48,43,37,-100,-100,-100,0,0,100,0.00,40.00,0,-999,0,0.00
2013-11-25,41,38,36,-100,-100,-100,0,0,100,0.00,40.00,0,-999,0,0.00
2013-11-26,39,37,36,-100,-100,-100,0,0,100,0.00,40.00,0,-999,0,0.00
2013-11-27,46,36,29,-100,-100,-100,0,0,100,0.00,40.00,0,-999,0,0.00
2013-11-28,54,35,28,-100,-100,-100,0,0,100,0.00,40.00,0,-999,0,0.00
2013-11-29,62,38,26,-100,-100,-100,0,0,100,0.00,40.00,0,-999,0,0.00
2013-11-30,71,46,31,-100,-100,-100,0,0,100,0.00,40.00,0,-999,0,0.00
2013-12-1,65,55,44,-100,-100,-100,0,0,100,0.00,40.00,0,-999,0,0.00
2013-12-2,73,65,57,-100,-100,-100,0,0,100,0.00,40.00,0,-999,0,0.00
2013-12-3,76,66,57,-100,-100,-100,0,0,100,0.00,40.00,0,-999,0,0.00
2013-12-4,75,69,64,-100,-100,-100,0,0,100,0.00,40.00,0,-999,0,0.00
2013-12-5,75,59,41,-100,-100,-100,0,0,100,0.00,40.00,0,-999,0,0.00
2013-12-6,41,39,37,-100,-100,-100,0,0,100,0.00,40.00,0,-999,0,0.00
2013-12-7,36,35,32,-100,-100,-100,0,0,100,0.00,40.00,0,-999,0,0.00
2013-12-8,44,40,34,-100,-100,-100,0,0,100,0.00,40.00,0,-999,0,0.00
2013-12-9,44,42,38,-100,-100,-100,0,0,100,0.00,40.00,0,-999,0,0.00
2013-12-10,49,39,31,-100,-100,-100,0,0,100,0.00,40.00,0,-999,0,0.00
2013-12-11,50,40,29,-100,-100,-100,0,0,100,0.00,40.00,0,-999,0,0.00
2013-12-12,53,39,32,-100,-100,-100,0,0,100,0.00,40.00,0,-999,0,0.00
2013-12-13,56,50,35,-100,-100,-100,0,0,100,0.00,40.00,0,-999,0,0.00
2013-12-14,56,50,43,-100,-100,-100,0,0,100,0.00,40.00,0,-999,0,0.00
2013-12-15,51,42,30,-100,-100,-100,0,0,100,0.00,40.00,0,-999,0,0.00
2013-12-16,62,37,26,-100,-100,-100,0,0,100,0.00,40.00,0,-999,0,0.00
2013-12-17,69,46,29,-100,-100,-100,0,0,100,0.00,40.00,0,-999,0,0.00
2013-12-18,68,50,35,-100,-100,-100,0,0,100,0.00,40.00,0,-999,0,0.00
2013-12-19,70,59,50,-100,-100,-100,0,0,100,0.00,40.00,0,-999,0,0.00
2013-12-20,71,68,65,-100,-100,-100,0,0,100,0.00,40.00,0,-999,0,0.00
2013-12-21,70,62,51,-100,-100,-100,0,0,100,0.00,40.00,0,-999,0,0.00
2013-12-22,59,50,35,-100,-100,-100,0,0,100,0.00,40.00,0,-999,0,0.00
2013-12-23,47,36,29,-100,-100,-100,0,0,100,0.00,40.00,0,-999,0,0.00
2013-12-24,56,36,25,-100,-100,-100,0,0,100,0.00,40.00,0,-999,0,0.00
2013-12-25,65,43,29,-100,-100,-100,0,0,100,0.00,40.00,0,-999,0,0.00
2013-12-26,60,47,40,-100,-100,-100,0,0,100,0.00,40.00,0,-999,0,0.00
2013-12-27,52,47,43,-100,-100,-100,0,0,100,0.00,40.00,0,-999,0,0.00
2013-12-28,52,46,40,-100,-100,-100,0,0,100,0.00,40.00,0,-999,0,0.00
2013-12-29,65,50,32,-100,-100,-100,0,0,100,0.00,40.00,0,-999,0,0.00
2013-12-30,48,42,37,-100,-100,-100,0,0,100,0.00,40.00,0,-999,0,0.00
2013-12-31,49,41,36,-100,-100,-100,0,0,100,0.00,40.00,0,-999,0,0.00
2014-1-1,58,52,43,-100,-100,-100,0,0,100,0.00,40.00,0,-999,0,0.00
2014-1-2,54,43,35,-100,-100,-100,0,0,100,0.00,40.00,0,-999,0,0.00